| DS18B20 | SHTC3 | ||||||
|---|---|---|---|---|---|---|---|
| ID | Date d/m/Y & Time | data1 สูง | data2 ต่ำ | data3 นอก | temp pcb | hum pcb | Time |
| 1839 | 12/03/2026 17:27:22 | 30.1  | 29.9  | 29.1  | 30.2  | 67.3  | 17:27 |
| 1838 | 12/03/2026 17:22:40 | 30.2  | 30.1  | 29.2  | 30.1  | 67.8  | 17:22 |
| 1837 | 12/03/2026 17:17:58 | 30.2  | 30.1  | 29.2  | 30.2  | 68.1  | 17:17 |
| 1836 | 12/03/2026 17:13:17 | 30.1  | 30.1  | 29.4  | 30.2  | 68.2  | 17:13 |
| 1835 | 12/03/2026 17:08:35 | 30.2  | 30.2  | 29.3  | 30.2  | 67.5  | 17:08 |
| 1834 | 12/03/2026 17:03:54 | 30.1  | 30.2  | 29.4  | 30.2  | 67.8  | 17:03 |
| 1833 | 12/03/2026 16:59:12 | 30.3  | 30.2  | 29.5  | 30.4  | 68.5  | 16:59 |
| 1832 | 12/03/2026 16:54:30 | 30.4  | 30.4  | 29.5  | 30.2  | 68.7  | 16:54 |
| 1831 | 12/03/2026 16:49:48 | 30.3  | 30.3  | 29.4  | 30.3  | 69.0  | 16:49 |
| 1830 | 12/03/2026 16:45:07 | 30.4  | 30.3  | 29.5  | 30.2  | 69.0  | 16:45 |
| 1829 | 12/03/2026 16:40:26 | 30.4  | 30.4  | 29.5  | 30.4  | 68.9  | 16:40 |
| 1828 | 12/03/2026 16:35:44 | 30.4  | 30.4  | 29.5  | 30.4  | 68.9  | 16:35 |
| 1827 | 12/03/2026 16:31:02 | 30.4  | 30.4  | 29.7  | 30.4  | 68.9  | 16:31 |
| 1826 | 12/03/2026 16:26:20 | 30.5  | 30.4  | 29.8  | 30.4  | 68.8  | 16:26 |
| 1825 | 12/03/2026 16:21:39 | 30.5  | 30.4  | 29.7  | 30.4  | 68.7  | 16:21 |
| 1824 | 12/03/2026 16:16:58 | 30.6  | 30.5  | 29.8  | 30.5  | 68.5  | 16:16 |
| 1823 | 12/03/2026 16:12:17 | 30.6  | 30.5  | 30.0  | 30.5  | 68.5  | 16:12 |
| 1822 | 12/03/2026 16:07:36 | 30.6  | 30.5  | 29.9  | 30.4  | 68.3  | 16:07 |
| 1821 | 12/03/2026 16:02:54 | 30.7  | 30.6  | 30.0  | 30.5  | 68.2  | 16:02 |
| 1820 | 12/03/2026 15:58:13 | 30.8  | 30.6  | 30.0  | 30.5  | 68.0  | 15:58 |
| 1819 | 12/03/2026 15:53:30 | 30.8  | 30.6  | 30.0  | 30.5  | 68.2  | 15:53 |
| 1818 | 12/03/2026 15:48:48 | 30.8  | 30.6  | 30.0  | 30.5  | 68.3  | 15:48 |
| 1817 | 12/03/2026 15:44:07 | 30.9  | 30.6  | 30.3  | 30.5  | 68.3  | 15:44 |
| 1816 | 12/03/2026 15:39:25 | 30.9  | 30.6  | 30.2  | 30.7  | 68.1  | 15:39 |